| time (UTC) | temp C | wind direction | speed KPH | gust KPH | rain 1hr cm | rain 24hr cm | rain mn cm | humidity % | barometer mb |
| 20260906141600 | 9 | 183 | 0.0 | 0.0 | 0.00 | 0.03 | 0.00 | 100 | 1017.8 |
| 20260906140056 | 8 | 183 | 0.0 | 0.0 | 0.00 | 0.03 | 0.00 | 100 | 1017.7 |
| 20260906134602 | 8 | 183 | 0.0 | 0.0 | 0.00 | 0.03 | 0.00 | 100 | 1017.6 |
| 20260906133056 | 8 | 183 | 0.0 | 0.0 | 0.00 | 0.03 | 0.00 | 100 | 1017.6 |
| 20260906131553 | 8 | 183 | 0.0 | 0.0 | 0.00 | 0.03 | 0.00 | 100 | 1017.6 |
| 20260906130121 | 9 | 183 | 0.0 | 0.0 | 0.00 | 0.03 | 0.00 | 100 | 1017.6 |
| 20260906124552 | 9 | 183 | 0.0 | 0.0 | 0.00 | 0.03 | 0.00 | 100 | 1017.6 |
| 20260906123051 | 9 | 183 | 0.0 | 0.0 | 0.00 | 0.03 | 0.00 | 100 | 1017.7 |
| 20260906121602 | 9 | 183 | 0.0 | 0.0 | 0.00 | 0.03 | 0.00 | 100 | 1017.6 |
| 20260906114548 | 9 | 183 | 0.0 | 0.0 | 0.00 | 0.03 | 0.00 | 100 | 1017.5 |
| 20260906113053 | 8 | 183 | 0.0 | 0.0 | 0.00 | 0.03 | 0.00 | 100 | 1017.6 |
| 20260906111546 | 8 | 183 | 0.0 | 0.0 | 0.00 | 0.03 | 0.00 | 100 | 1017.6 |
| 20260906110045 | 8 | 183 | 0.0 | 0.0 | 0.00 | 0.03 | 0.00 | 100 | 1017.7 |
| 20260906104543 | 8 | 183 | 0.0 | 0.0 | 0.00 | 0.03 | 0.00 | 100 | 1017.8 |
| 20260906103052 | 8 | 183 | 0.0 | 0.0 | 0.00 | 0.03 | 0.00 | 100 | 1017.7 |
| 20260906101546 | 8 | 183 | 0.0 | 0.0 | 0.00 | 0.03 | 0.00 | 100 | 1017.8 |
| 20260906100041 | 8 | 183 | 0.0 | 0.0 | 0.00 | 0.03 | 0.00 | 100 | 1017.9 |
| 20260906094539 | 9 | 183 | 0.0 | 0.0 | 0.00 | 0.03 | 0.00 | 100 | 1018.1 |
| 20260906093049 | 9 | 183 | 0.0 | 0.0 | 0.00 | 0.03 | 0.00 | 100 | 1017.9 |
| 20260906091540 | 9 | 182 | 0.0 | 0.0 | 0.00 | 0.03 | 0.00 | 100 | 1017.9 |
| 20260906090035 | 9 | 182 | 0.0 | 0.0 | 0.00 | 0.03 | 0.00 | 100 | 1017.8 |
| 20260906084534 | 9 | 182 | 0.0 | 0.0 | 0.00 | 0.03 | 0.00 | 100 | 1017.9 |
| 20260906083032 | 9 | 182 | 0.0 | 0.0 | 0.00 | 0.03 | 0.00 | 100 | 1017.9 |
| 20260906081531 | 10 | 182 | 0.0 | 0.0 | 0.00 | 0.03 | 0.00 | 100 | 1018.0 |
| 20260906080030 | 10 | 182 | 0.0 | 0.0 | 0.00 | 0.03 | 0.00 | 100 | 1017.9 |
| 20260906074529 | 10 | 182 | 0.0 | 0.0 | 0.00 | 0.03 | 0.00 | 100 | 1018.0 |
| 20260906073026 | 10 | 182 | 0.0 | 0.0 | 0.00 | 0.03 | 0.00 | 100 | 1018.1 |
| 20260906071525 | 10 | 180 | 0.0 | 0.0 | 0.00 | 0.03 | 0.00 | 100 | 1018.3 |
| 20260906070024 | 10 | 180 | 0.0 | 0.0 | 0.00 | 0.03 | 0.03 | 100 | 1018.3 |
| 20260906064533 | 10 | 180 | 0.0 | 0.0 | 0.00 | 0.03 | 0.03 | 100 | 1018.4 |
| 20260906063023 | 10 | 180 | 0.0 | 0.0 | 0.00 | 0.03 | 0.03 | 100 | 1018.3 |
| 20260906061525 | 11 | 180 | 0.0 | 0.0 | 0.00 | 0.03 | 0.03 | 100 | 1018.4 |
| 20260906060021 | 11 | 180 | 0.0 | 0.0 | 0.00 | 0.03 | 0.03 | 100 | 1018.5 |
| 20260906054532 | 11 | 180 | 0.0 | 0.0 | 0.00 | 0.03 | 0.03 | 100 | 1018.6 |
| 20260906053020 | 11 | 180 | 0.0 | 0.0 | 0.00 | 0.03 | 0.03 | 100 | 1018.6 |
| 20260906051520 | 12 | 180 | 0.0 | 0.0 | 0.00 | 0.03 | 0.03 | 100 | 1018.6 |
| 20260906050020 | 12 | 180 | 0.0 | 0.0 | 0.00 | 0.03 | 0.03 | 100 | 1018.7 |
| 20260906044519 | 12 | 180 | 0.0 | 0.0 | 0.00 | 0.03 | 0.03 | 99 | 1018.7 |
| 20260906043023 | 13 | 180 | 0.0 | 0.0 | 0.00 | 0.03 | 0.03 | 100 | 1018.7 |
| 20260906041518 | 13 | 180 | 0.0 | 1.6 | 0.00 | 0.03 | 0.03 | 99 | 1018.8 |
| 20260906040019 | 13 | 180 | 0.0 | 1.6 | 0.00 | 0.03 | 0.03 | 99 | 1018.8 |
| 20260906034517 | 13 | 180 | 0.0 | 1.6 | 0.00 | 0.03 | 0.03 | 98 | 1018.7 |
| 20260906033017 | 14 | 180 | 0.0 | 1.6 | 0.00 | 0.03 | 0.03 | 97 | 1018.7 |
| 20260906031518 | 14 | 180 | 0.0 | 3.2 | 0.00 | 0.03 | 0.03 | 96 | 1018.5 |
| 20260906030015 | 15 | 194 | 0.0 | 3.2 | 0.00 | 0.03 | 0.03 | 94 | 1018.6 |
| 20260906024514 | 16 | 202 | 0.0 | 4.8 | 0.00 | 0.03 | 0.03 | 92 | 1018.6 |
| 20260906023015 | 16 | 281 | 1.6 | 8.0 | 0.00 | 0.03 | 0.03 | 90 | 1018.7 |
| 20260906021523 | 17 | 282 | 0.0 | 4.8 | 0.00 | 0.03 | 0.03 | 88 | 1018.8 |
| 20260906020018 | 18 | 272 | 1.6 | 4.8 | 0.00 | 0.03 | 0.03 | 85 | 1018.8 |
| 20260906014517 | 18 | 261 | 0.0 | 8.0 | 0.00 | 0.03 | 0.03 | 87 | 1018.8 |
| 20260906013029 | 17 | 292 | 0.0 | 0.0 | 0.00 | 0.03 | 0.03 | 85 | 1018.8 |
| 20260906011512 | 17 | 263 | 0.0 | 9.7 | 0.00 | 0.03 | 0.03 | 84 | 1018.9 |
| 20260906010016 | 18 | 199 | 0.0 | 6.4 | 0.00 | 0.08 | 0.03 | 84 | 1018.8 |
| 20260906004513 | 18 | 283 | 0.0 | 9.7 | 0.00 | 0.08 | 0.03 | 82 | 1018.7 |
| 20260906003019 | 18 | 290 | 3.2 | 8.0 | 0.00 | 0.08 | 0.03 | 80 | 1018.7 |
| 20260906001512 | 18 | 265 | 3.2 | 9.7 | 0.00 | 0.08 | 0.03 | 82 | 1018.5 |
| 20260906000007 | 18 | 304 | 6.4 | 14.5 | 0.00 | 0.10 | 0.03 | 81 | 1018.6 |
| 20260905234504 | 19 | 298 | 0.0 | 8.0 | 0.00 | 0.10 | 0.03 | 79 | 1018.5 |
| 20260905233002 | 19 | 299 | 3.2 | 12.9 | 0.00 | 0.10 | 0.03 | 82 | 1018.4 |
| 20260905231600 | 18 | 283 | 0.0 | 9.7 | 0.00 | 0.10 | 0.03 | 83 | 1018.4 |
| 20260905230059 | 18 | 257 | 0.0 | 12.9 | 0.00 | 0.10 | 0.03 | 83 | 1018.6 |
| 20260905224601 | 18 | 309 | 4.8 | 11.3 | 0.00 | 0.10 | 0.03 | 83 | 1018.7 |
| 20260905223056 | 18 | 288 | 4.8 | 14.5 | 0.00 | 0.10 | 0.03 | 84 | 1018.8 |
| 20260905221554 | 17 | 249 | 1.6 | 9.7 | 0.00 | 0.10 | 0.03 | 87 | 1018.7 |
| 20260905220053 | 17 | 190 | 0.0 | 6.4 | 0.00 | 0.10 | 0.03 | 85 | 1018.8 |
| 20260905214553 | 18 | 286 | 0.0 | 8.0 | 0.00 | 0.10 | 0.03 | 83 | 1018.8 |
| 20260905213051 | 18 | 286 | 0.0 | 4.8 | 0.00 | 0.10 | 0.03 | 85 | 1018.8 |
| 20260905211552 | 17 | 285 | 1.6 | 9.7 | 0.00 | 0.10 | 0.03 | 85 | 1018.8 |
| 20260905210107 | 17 | 290 | 1.6 | 8.0 | 0.00 | 0.10 | 0.03 | 85 | 1018.8 |
| 20260905204552 | 17 | 198 | 1.6 | 6.4 | 0.00 | 0.10 | 0.03 | 88 | 1018.9 |
| 20260905203050 | 17 | 294 | 1.6 | 12.9 | 0.00 | 0.10 | 0.03 | 85 | 1018.9 |
| 20260905201549 | 18 | 329 | 3.2 | 14.5 | 0.00 | 0.10 | 0.03 | 83 | 1018.9 |
| 20260905200055 | 18 | 274 | 1.6 | 12.9 | 0.00 | 0.10 | 0.03 | 87 | 1018.8 |
| 20260905194548 | 18 | 316 | 4.8 | 11.3 | 0.00 | 0.10 | 0.03 | 86 | 1018.9 |
| 20260905193050 | 18 | 307 | 0.0 | 9.7 | 0.00 | 0.10 | 0.03 | 82 | 1019.1 |
| 20260905191548 | 18 | 283 | 0.0 | 4.8 | 0.00 | 0.10 | 0.03 | 82 | 1019.1 |
| 20260905190055 | 18 | 253 | 0.0 | 4.8 | 0.00 | 0.10 | 0.03 | 81 | 1019.0 |
| 20260905184546 | 18 | 170 | 0.0 | 0.0 | 0.00 | 0.10 | 0.03 | 82 | 1019.0 |
| 20260905183042 | 17 | 334 | 0.0 | 0.0 | 0.00 | 0.10 | 0.03 | 84 | 1019.0 |
| 20260905181543 | 17 | 334 | 0.0 | 0.0 | 0.00 | 0.10 | 0.03 | 84 | 1019.1 |
| 20260905180039 | 17 | 297 | 0.0 | 0.0 | 0.00 | 0.10 | 0.03 | 84 | 1019.1 |
| 20260905174541 | 17 | 290 | 0.0 | 0.0 | 0.00 | 0.10 | 0.03 | 86 | 1019.2 |
| 20260905173034 | 16 | 120 | 0.0 | 0.0 | 0.00 | 0.10 | 0.03 | 90 | 1019.3 |
| 20260905171542 | 16 | 31 | 1.6 | 4.8 | 0.00 | 0.10 | 0.03 | 96 | 1019.2 |
| 20260905170029 | 15 | 80 | 0.0 | 0.0 | 0.00 | 0.10 | 0.03 | 98 | 1019.0 |
| 20260905164524 | 14 | 80 | 0.0 | 0.0 | 0.00 | 0.10 | 0.03 | 100 | 1019.0 |
| 20260905163022 | 14 | 85 | 0.0 | 1.6 | 0.00 | 0.10 | 0.03 | 100 | 1019.0 |
| 20260905161518 | 13 | 60 | 0.0 | 1.6 | 0.03 | 0.10 | 0.03 | 100 | 1018.9 |
| 20260905160019 | 12 | 95 | 0.0 | 0.0 | 0.03 | 0.10 | 0.03 | 100 | 1018.9 |
| 20260905154512 | 11 | 95 | 0.0 | 0.0 | 0.03 | 0.10 | 0.03 | 100 | 1018.9 |
| 20260905153009 | 11 | 95 | 0.0 | 0.0 | 0.03 | 0.10 | 0.03 | 100 | 1019.0 |
| 20260905151616 | 10 | 95 | 0.0 | 0.0 | 0.00 | 0.08 | 0.00 | 100 | 1019.0 |
| 20260905150008 | 10 | 95 | 0.0 | 0.0 | 0.00 | 0.08 | 0.00 | 100 | 1019.0 |
| 20260905144516 | 9 | 95 | 0.0 | 0.0 | 0.00 | 0.08 | 0.00 | 100 | 1018.9 |
| 20260905143007 | 9 | 90 | 0.0 | 0.0 | 0.00 | 0.08 | 0.00 | 100 | 1018.9 |